User: anonymous   Login
Location: Unspecified
(51.3947°N, 0.0000°E)
Time: 22:05:44
(UTC+00:00)
Language:

Tiangong 2 - Orbit

View from above orbital plane
View from above orbital plane
View from above satellite
View from above satellite

Ground track
Ground track

The orbit data is extracted from the following two-line orbital elements,

1 41765U 16057A   19196.39829601  .00002837  00000-0  36086-4 0  9993
2 41765  42.7819 158.4040 0006365  97.6164  41.5864 15.61901171161458
Epoch (UTC): 15 July 2019 09:33:32
Eccentricity: 0.0006365
inclination: 42.7819°
perigee height: 378 km
apogee height: 386 km
right ascension of ascending node: 158.4040°
argument of perigee: 97.6164°
revolutions per day: 15.61901171
mean anomaly at epoch: 41.5864°
orbit number at epoch: 16145

The dashed part of the orbit path shows where the satellite is in the earth's shadow,  

DLR